| time (UTC) | temp F | wind direction | speed knots | gust knots | rain 1hr in | rain 24hr in | rain mn in | humidity % | barometer mb |
| 20260904015243 | 76 | 9 | 0.9 | 1.7 | 0.00 | 0.00 | 0.00 | 29 | 1007.8 |
| 20260904013747 | 78 | 9 | 0.0 | 0.9 | 0.00 | 0.00 | 0.00 | 28 | 1007.8 |
| 20260904012251 | 79 | 9 | 0.0 | 2.6 | 0.00 | 0.00 | 0.00 | 26 | 1007.7 |
| 20260904010752 | 81 | 342 | 1.7 | 2.6 | 0.00 | 0.00 | 0.00 | 26 | 1007.4 |
| 20260904005255 | 83 | 339 | 0.0 | 4.3 | 0.00 | 0.00 | 0.00 | 24 | 1007.2 |
| 20260904003820 | 84 | 223 | 0.0 | 1.7 | 0.00 | 0.00 | 0.00 | 22 | 1007.2 |
| 20260904002321 | 84 | 223 | 0.0 | 3.5 | 0.00 | 0.00 | 0.00 | 22 | 1006.8 |
| 20260904000740 | 84 | 219 | 0.0 | 3.5 | 0.00 | 0.00 | 0.00 | 22 | 1006.8 |
| 20260903235248 | 84 | 239 | 1.7 | 3.5 | 0.00 | 0.00 | 0.00 | 21 | 1007.9 |
| 20260903233748 | 84 | 134 | 0.9 | 3.5 | 0.00 | 0.00 | 0.00 | 22 | 1007.7 |
| 20260903232254 | 83 | 110 | 0.0 | 5.2 | 0.00 | 0.00 | 0.00 | 22 | 1007.6 |
| 20260903230756 | 83 | 122 | 0.0 | 7.0 | 0.00 | 0.00 | 0.00 | 22 | 1007.8 |
| 20260903225258 | 83 | 225 | 3.5 | 11.3 | 0.00 | 0.00 | 0.00 | 22 | 1007.6 |
| 20260903223743 | 84 | 331 | 0.9 | 6.1 | 0.00 | 0.00 | 0.00 | 22 | 1007.3 |
| 20260903222248 | 83 | 209 | 2.6 | 6.1 | 0.00 | 0.00 | 0.00 | 22 | 1007.5 |
| 20260903220754 | 83 | 265 | 6.1 | 8.7 | 0.00 | 0.00 | 0.00 | 23 | 1007.4 |
| 20260903215254 | 83 | 181 | 4.3 | 6.1 | 0.00 | 0.00 | 0.00 | 23 | 1007.4 |
| 20260903213757 | 82 | 215 | 4.3 | 8.7 | 0.00 | 0.00 | 0.00 | 23 | 1007.2 |
| 20260903212243 | 82 | 176 | 1.7 | 6.1 | 0.00 | 0.00 | 0.00 | 24 | 1007.2 |
| 20260903210744 | 82 | 250 | 0.0 | 7.0 | 0.00 | 0.00 | 0.00 | 24 | 1007.3 |
| 20260903205247 | 81 | 10 | 3.5 | 4.3 | 0.00 | 0.00 | 0.00 | 25 | 1007.3 |
| 20260903203755 | 80 | 207 | 0.9 | 5.2 | 0.00 | 0.00 | 0.00 | 27 | 1007.2 |
| 20260903202318 | 80 | 187 | 1.7 | 9.6 | 0.00 | 0.00 | 0.00 | 26 | 1007.5 |
| 20260903200744 | 80 | 305 | 6.1 | 10.4 | 0.00 | 0.00 | 0.00 | 25 | 1007.6 |
| 20260903195246 | 80 | 181 | 4.3 | 11.3 | 0.00 | 0.00 | 0.00 | 26 | 1007.6 |
| 20260903193748 | 79 | 175 | 7.8 | 10.4 | 0.00 | 0.00 | 0.00 | 26 | 1007.6 |
| 20260903192254 | 78 | 204 | 1.7 | 10.4 | 0.00 | 0.00 | 0.00 | 28 | 1007.5 |
| 20260903190755 | 78 | 188 | 4.3 | 10.4 | 0.00 | 0.00 | 0.00 | 29 | 1007.5 |
| 20260903185241 | 77 | 209 | 3.5 | 7.8 | 0.00 | 0.00 | 0.00 | 29 | 1007.6 |
| 20260903183742 | 77 | 121 | 0.0 | 7.0 | 0.00 | 0.00 | 0.00 | 31 | 1007.5 |
| 20260903182242 | 75 | 138 | 4.3 | 7.8 | 0.00 | 0.00 | 0.00 | 33 | 1007.7 |
| 20260903180808 | 74 | 122 | 4.3 | 7.0 | 0.00 | 0.00 | 0.00 | 35 | 1007.9 |
| 20260903175249 | 74 | 195 | 0.0 | 6.1 | 0.00 | 0.00 | 0.00 | 37 | 1007.9 |
| 20260903173813 | 73 | 180 | 3.5 | 6.1 | 0.00 | 0.00 | 0.00 | 44 | 1008.2 |
| 20260903172241 | 70 | 186 | 1.7 | 5.2 | 0.00 | 0.00 | 0.00 | 48 | 1008.3 |
| 20260903170743 | 69 | 184 | 2.6 | 4.3 | 0.00 | 0.00 | 0.00 | 48 | 1008.3 |
| 20260903165243 | 67 | 242 | 1.7 | 5.2 | 0.00 | 0.00 | 0.00 | 50 | 1008.4 |
| 20260903163751 | 67 | 204 | 2.6 | 5.2 | 0.00 | 0.00 | 0.00 | 52 | 1008.3 |
| 20260903162254 | 65 | 131 | 1.7 | 2.6 | 0.00 | 0.00 | 0.00 | 55 | 1008.3 |
| 20260903160816 | 64 | 130 | 1.7 | 1.7 | 0.00 | 0.00 | 0.00 | 55 | 1008.5 |
| 20260903155240 | 63 | 130 | 0.0 | 2.6 | 0.00 | 0.00 | 0.00 | 58 | 1008.4 |
| 20260903153741 | 63 | 131 | 0.9 | 4.3 | 0.00 | 0.00 | 0.00 | 59 | 1008.2 |
| 20260903152246 | 62 | 110 | 2.6 | 4.3 | 0.00 | 0.00 | 0.00 | 61 | 1008.1 |
| 20260903150808 | 63 | 107 | 0.0 | 4.3 | 0.00 | 0.00 | 0.00 | 62 | 1008.1 |
| 20260903145248 | 62 | 81 | 0.0 | 0.0 | 0.00 | 0.00 | 0.00 | 63 | 1007.9 |
| 20260903143753 | 61 | 81 | 1.7 | 3.5 | 0.00 | 0.00 | 0.00 | 64 | 1008.0 |
| 20260903142315 | 60 | 81 | 0.9 | 1.7 | 0.00 | 0.00 | 0.00 | 67 | 1007.9 |
| 20260903140814 | 58 | 81 | 1.7 | 3.5 | 0.00 | 0.00 | 0.00 | 69 | 1007.9 |
| 20260903135259 | 56 | 80 | 0.0 | 0.0 | 0.00 | 0.00 | 0.00 | 72 | 1007.9 |
| 20260903133741 | 54 | 81 | 0.0 | 2.6 | 0.00 | 0.00 | 0.00 | 75 | 1007.6 |
| 20260903132241 | 52 | 81 | 0.9 | 4.3 | 0.00 | 0.00 | 0.00 | 78 | 1007.3 |
| 20260903130752 | 50 | 71 | 0.0 | 6.1 | 0.00 | 0.00 | 0.00 | 81 | 1007.3 |
| 20260903125313 | 48 | 277 | 0.9 | 1.7 | 0.00 | 0.00 | 0.00 | 84 | 1007.2 |
| 20260903123755 | 49 | 277 | 0.9 | 1.7 | 0.00 | 0.00 | 0.00 | 82 | 1006.9 |
| 20260903122320 | 50 | 277 | 0.0 | 0.0 | 0.00 | 0.00 | 0.00 | 80 | 1006.6 |
| 20260903120759 | 50 | 277 | 0.0 | 0.0 | 0.00 | 0.00 | 0.00 | 81 | 1006.6 |
| 20260903115243 | 50 | 277 | 0.0 | 0.0 | 0.00 | 0.00 | 0.00 | 80 | 1006.5 |
| 20260903113743 | 51 | 277 | 0.0 | 2.6 | 0.00 | 0.00 | 0.00 | 79 | 1006.5 |
| 20260903112241 | 50 | 277 | 0.0 | 0.9 | 0.00 | 0.00 | 0.00 | 79 | 1006.3 |
| 20260903110745 | 52 | 277 | 0.0 | 0.9 | 0.00 | 0.00 | 0.00 | 78 | 1006.0 |
| 20260903105308 | 52 | 277 | 0.0 | 1.7 | 0.00 | 0.00 | 0.00 | 77 | 1006.1 |
| 20260903103747 | 53 | 288 | 2.6 | 4.3 | 0.00 | 0.00 | 0.00 | 76 | 1006.0 |
| 20260903102255 | 55 | 306 | 0.0 | 4.3 | 0.00 | 0.00 | 0.00 | 74 | 1006.0 |
| 20260903100757 | 55 | 310 | 3.5 | 6.1 | 0.00 | 0.00 | 0.00 | 73 | 1005.6 |
| 20260903095241 | 57 | 279 | 4.3 | 7.0 | 0.00 | 0.00 | 0.00 | 71 | 1005.6 |
| 20260903093742 | 58 | 274 | 6.1 | 7.8 | 0.00 | 0.00 | 0.00 | 70 | 1005.6 |
| 20260903092245 | 58 | 283 | 4.3 | 7.0 | 0.00 | 0.00 | 0.00 | 70 | 1005.7 |
| 20260903090813 | 57 | 298 | 6.1 | 6.1 | 0.00 | 0.00 | 0.00 | 75 | 1005.8 |
| 20260903085254 | 58 | 300 | 0.0 | 0.0 | 0.00 | 0.00 | 0.00 | 73 | 1005.9 |
| 20260903083757 | 58 | 300 | 0.0 | 5.2 | 0.00 | 0.00 | 0.00 | 74 | 1006.0 |
| 20260903082241 | 59 | 79 | 0.0 | 0.9 | 0.00 | 0.00 | 0.00 | 74 | 1006.0 |
| 20260903080801 | 60 | 79 | 0.0 | 1.7 | 0.00 | 0.00 | 0.00 | 72 | 1005.7 |
| 20260903075307 | 61 | 79 | 0.0 | 0.9 | 0.00 | 0.00 | 0.00 | 72 | 1005.9 |
| 20260903073746 | 62 | 79 | 2.6 | 3.5 | 0.00 | 0.00 | 0.00 | 71 | 1006.0 |
| 20260903072248 | 62 | 173 | 0.9 | 4.3 | 0.00 | 0.00 | 0.00 | 70 | 1006.3 |
| 20260903070751 | 63 | 156 | 2.6 | 3.5 | 0.00 | 0.00 | 0.00 | 68 | 1006.4 |
| 20260903065252 | 63 | 161 | 2.6 | 5.2 | 0.00 | 0.00 | 0.00 | 69 | 1006.5 |
| 20260903063752 | 63 | 198 | 2.6 | 7.8 | 0.00 | 0.00 | 0.00 | 69 | 1006.2 |
| 20260903062258 | 64 | 305 | 0.9 | 3.5 | 0.00 | 0.00 | 0.00 | 69 | 1005.4 |
| 20260903060758 | 64 | 308 | 4.3 | 4.3 | 0.00 | 0.00 | 0.00 | 68 | 1004.9 |
| 20260903055243 | 64 | 33 | 0.0 | 4.3 | 0.00 | 0.00 | 0.00 | 67 | 1004.7 |
| 20260903053747 | 65 | 16 | 3.5 | 11.3 | 0.00 | 0.00 | 0.00 | 65 | 1004.4 |
| 20260903052248 | 67 | 52 | 10.4 | 12.2 | 0.00 | 0.00 | 0.00 | 57 | 1004.9 |
| 20260903050757 | 68 | 92 | 6.1 | 7.8 | 0.00 | 0.00 | 0.00 | 54 | 1005.2 |
| 20260903045257 | 68 | 357 | 6.1 | 8.7 | 0.00 | 0.00 | 0.00 | 54 | 1003.2 |
| 20260903043820 | 68 | 352 | 5.2 | 11.3 | 0.00 | 0.00 | 0.00 | 53 | 1004.2 |
| 20260903042244 | 68 | 298 | 2.6 | 13.0 | 0.00 | 0.00 | 0.00 | 54 | 1004.8 |
| 20260903040744 | 69 | 273 | 13.9 | 17.4 | 0.00 | 0.00 | 0.00 | 48 | 1003.4 |
| 20260903035249 | 71 | 258 | 15.6 | 20.9 | 0.00 | 0.00 | 0.00 | 46 | 1004.3 |
| 20260903033751 | 70 | 263 | 20.0 | 25.2 | 0.00 | 0.00 | 0.00 | 46 | 1005.2 |
| 20260903032311 | 72 | 289 | 11.3 | 19.1 | 0.00 | 0.00 | 0.00 | 42 | 1003.9 |
| 20260903030755 | 75 | 288 | 25.2 | 25.2 | 0.00 | 0.00 | 0.00 | 40 | 1003.0 |
| 20260903025316 | 78 | 85 | 4.3 | 10.4 | 0.00 | 0.00 | 0.00 | 36 | 1002.4 |
| 20260903023757 | 78 | 83 | 7.0 | 8.7 | 0.00 | 0.00 | 0.00 | 36 | 1001.8 |
| 20260903022241 | 79 | 83 | 5.2 | 9.6 | 0.00 | 0.00 | 0.00 | 36 | 1001.6 |
| 20260903020742 | 80 | 86 | 4.3 | 10.4 | 0.00 | 0.00 | 0.00 | 35 | 1001.6 |